Caldwell, NJ

2:32 PM EDT on September 18, 2019 (GMT -0400)
Essex County

Weather History for KCDW - August, 2019

Change the Weather History Date:

Friday, August 23, 2019

  Actual Average Record
Temperature  
Mean Temperature 70 °F -  
Max Temperature 77 °F 81 °F 93 °F (1959)
Min Temperature 63 °F 56 °F 44 °F (1982)
Cooling Degree Days 4    
Growing Degree Days 20 (Base 50)    
Moisture  
Dew Point 64 °F    
Average Humidity 81    
Maximum Humidity 97    
Minimum Humidity 60    
Precipitation  
Precipitation 0.29 in - - ()
Sea Level Pressure  
Sea Level Pressure 30.01 in    
Wind  
Wind Speed 2 mph ()    
Max Wind Speed 5 mph    
Max Gust Speed -    
Visibility 8.5 miles    
Events Rain    
Averages and records for this station are not official NWS values.
T = Trace of Precipitation, MM = Missing Value Source: Averaged Metar Reports

Daily Weather History Graph

Daily Weather History Graph

Search for Another Location

Airport or City:

Astronomy

Aug. 23, 2019 Rise Set
Actual Time 6:14 AM EDT 7:44 PM EDT
Civil Twilight 5:45 AM EDT 8:12 PM EDT
Nautical Twilight 5:11 AM EDT 8:47 PM EDT
Astronomical Twilight 4:34 AM EDT 9:24 PM EDT
Moon No Moon Rise 1:52 PM EDT (8/23)
Length of Visible Light 14h 26m
Length of Day
13h 29m
Waning Gibbous, 50% of the Moon is Illuminated
Aug 23
Waning Gibbous
Aug 30
New
Sep 5
First Quarter
Sep 14
Full
Sep 21
Last Quarter

Hourly Weather History & Observations

Time (EDT) Temp. Dew Point Humidity Pressure Visibility Wind Dir Wind Speed Gust Speed Precip Events Conditions
12:39 AM 73.9 °F 72.0 °F 93% 29.94 in 8.0 mi SSW 4.6 mph - 0.00 in   Overcast
12:53 AM 73.9 °F 73.0 °F 97% 29.95 in 9.0 mi SW 3.5 mph - 0.00 in   Overcast
1:28 AM 73.9 °F 72.0 °F 93% 29.94 in 4.0 mi West 3.5 mph - 0.03 in Rain Light Rain
1:39 AM 73.9 °F 72.0 °F 93% 29.93 in 2.5 mi WNW 3.5 mph - 0.06 in Rain Rain
1:53 AM 73.9 °F 72.0 °F 93% 29.94 in 5.0 mi WNW 3.5 mph - 0.07 in Rain Light Rain
2:46 AM 70.0 °F 66.0 °F 87% 29.94 in 2.5 mi Calm Calm - 0.11 in Rain Rain
2:53 AM 70.0 °F 66.0 °F 87% 29.95 in 5.0 mi Calm Calm - 0.12 in Rain Light Rain
3:53 AM 70.0 °F 68.0 °F 93% 29.94 in 8.0 mi Calm Calm - 0.01 in   Mostly Cloudy
4:53 AM 70.0 °F 66.0 °F 87% 29.95 in 10.0 mi Calm Calm - 0.00 in   Overcast
5:53 AM 68.0 °F 64.0 °F 87% 29.99 in 10.0 mi Variable 3.5 mph - N/A   Overcast
6:53 AM 66.9 °F 62.1 °F 84% 30.01 in 10.0 mi Calm Calm - 0.00 in   Overcast
7:53 AM 66.9 °F 62.1 °F 84% 30.04 in 7.0 mi Calm Calm - 0.02 in Rain Light Rain
8:53 AM 66.0 °F 61.0 °F 84% 30.05 in 10.0 mi Calm Calm - 0.02 in Rain Light Rain
9:53 AM 66.0 °F 62.1 °F 87% 30.05 in 5.0 mi Calm Calm - 0.04 in Rain Light Rain
10:28 AM 66.9 °F 62.1 °F 84% 30.04 in 10.0 mi Calm Calm - 0.00 in   Mostly Cloudy
10:53 AM 66.9 °F 62.1 °F 84% 30.05 in 10.0 mi Calm Calm - 0.01 in   Mostly Cloudy
11:53 AM 70.0 °F 62.1 °F 76% 30.04 in 10.0 mi Calm Calm - N/A   Partly Cloudy
12:53 PM 72.0 °F 62.1 °F 71% 30.02 in 10.0 mi Variable 3.5 mph - N/A   Partly Cloudy
1:53 PM 73.0 °F 63.0 °F 71% 30.04 in 10.0 mi WSW 4.6 mph - N/A   Clear
2:53 PM 75.0 °F 60.1 °F 60% 30.03 in 10.0 mi WNW 4.6 mph - N/A   Clear
3:53 PM 75.9 °F 61.0 °F 60% 30.02 in 10.0 mi Variable 3.5 mph - N/A   Scattered Clouds
4:53 PM 75.9 °F 61.0 °F 60% 30.01 in 10.0 mi Calm Calm - N/A   Scattered Clouds
5:53 PM 75.0 °F 61.0 °F 62% 30.01 in 10.0 mi Calm Calm - N/A   Clear
6:53 PM 75.0 °F 63.0 °F 66% 30.02 in 10.0 mi Variable 4.6 mph - N/A   Clear
7:53 PM 71.1 °F 61.0 °F 70% 30.03 in 10.0 mi Calm Calm - N/A   Clear
8:53 PM 69.1 °F 60.1 °F 73% 30.05 in 10.0 mi Calm Calm - N/A   Clear
9:53 PM 66.9 °F 60.1 °F 79% 30.07 in 10.0 mi Calm Calm - N/A   Clear
10:53 PM 64.0 °F 61.0 °F 90% 30.09 in 10.0 mi Calm Calm - N/A   Clear
11:53 PM 63.0 °F 59.0 °F 87% 30.10 in 10.0 mi Calm Calm - N/A   Clear